AddedLatest Added eBooks:

  1. 2019-05-20Power Failure (The Jake Ross, n 3) by Ben Bova
  2. 2019-05-20Technics Publications - C# Programming Essentials
  3. 2019-05-20Outdoor Knots A Pocket Guide to the Most Common Knots, Hitches, Splices, and Lashings (Falcon Pocket Guides)
  4. 2019-05-20The Basic Python Coding Breakdown
  5. 2019-05-20American Survival Guide - June 2019
  6. 2019-05-20Windows 10 Version 1903 with Update [18362.113] AIO 64in2 x86/x64 by adguard v19.05.15 - Removed
  7. 2019-05-20Calendar 1993 720p BluRay H264 AAC-RARBG
  8. 2019-05-20The Disciplined Mind
  9. 2019-05-20Crawlspace 2012 1080p BluRay x264-SONiDO
  10. 2019-05-20Troubleshooting Your First Low-performing T-SQL Query - Removed
  11. 2019-05-20Understanding and Painting the Head
  12. 2019-05-20Game of Thrones S08E06 720p WEBRip 2CH x265 HEVC-PSA
  13. 2019-05-20Windows 10 End User Essentials
  14. 2019-05-20Game of Thrones S08E06 720p AMZN WEB-DL x264 MkvCage
  15. 2019-05-20Wordpress Rest API and Ionic 4 (Angular) App With Auth (Updated)
  16. 2019-05-20Down And Dangerous 2013 1080p BluRay x264-SONiDO
  17. 2019-05-20Wolfcop 2014 1080p BluRay x264-SONiDO
  18. 2019-05-20Game of Thrones S08E06 1080p AMZN WEB-DL x264 MkvCage
  19. 2019-05-20Berberian Sound Studio 2012 720p BluRay H264 AAC-RARBG
  20. 2019-05-20Crawlspace 2012 720p BluRay H264 AAC-RARBG
  21. 2019-05-20C & C for absolute beginners. Learn with examples
  22. 2019-05-20Science Illustrated May 2019
  23. 2019-05-20C & Java for absolute beginners. Learn with examples
  24. 2019-05-20Inbred 2011 720p BluRay H264 AAC-RARBG
  25. 2019-05-20Official Xbox - Magazine USA June 2019
  26. 2019-05-20Essex Boys Retribution 2013 1080p BluRay H264 AAC-RARBG
  27. 2019-05-20MacFormat UK June 2019
  28. 2019-05-20C & Python for absolute beginners. Learn with examples
  29. 2019-05-20FHM Sweden May 2019
  30. 2019-05-2050 Assorted Magazines - May 19 (2019)
  31. 2019-05-20Lancaster Skies 2019 BRRip XviD AC3-EVO
  32. 2019-05-20Bag Boy Lover Boy 2014 1080p BluRay H264 AAC-RARBG
  33. 2019-05-20The Brawler 2019 1080p NF WEB-DL H264-ETRG
  34. 2019-05-20Kainet LogViewPro 3.12.1
  35. 2019-05-20The Viking War 2019 DVDRip x264-SPOOKS
  36. 2019-05-20Backdraft 2 2019 BRRip x264 AAC-SSN
  37. 2019-05-20Techlife News - May 18, 2019
  38. 2019-05-20Piercing Brightness 2013 1080p BluRay H264 AAC-RARBG
  39. 2019-05-20Hard Disk Sentinel Pro 5.40.5 Build 10482 Beta Multilingual
  40. 2019-05-20Lancaster Skies 2019 BDRip x264-EiDER
  41. 2019-05-20Artifact Interactive Garden Planner 3.7.12
  42. 2019-05-20The Brawler 2019 720p NF WEB-DL H264-ETRG
  43. 2019-05-20Rottentail 2018 BDRip XviD AC3-EVO
  44. 2019-05-20Fourth Quarter 2018 HDRip XViD-ETRG
  45. 2019-05-20Rottentail 2018 BDRip AC3 x264-CMRG
  46. 2019-05-20Trimble Tekla Portal Frame & Connection Designer 2019 v19.0.0 (x64)
  47. 2019-05-20Charismata 2017 DVDRip x264-SPOOKS
  48. 2019-05-20Blue Spring 2001 720p BluRay x264-GHOULS
  49. 2019-05-20Tekla Structural Designer 2019 SP1 19.0.1.20 (x64) - Removed
  50. 2019-05-20Universal Viewer Pro Business 6.7.1.0 Multilingual
  51. 2019-05-20Bitsum Process Lasso Pro 9.1.0.39 Beta Multilingual
  52. 2019-05-20Zuken E3.series 2018 SP2 P3 Build 19.23 (x86-x64) Multilanguage
  53. 2019-05-20Blue Spring 2001 1080p BluRay x264-GHOULS
  54. 2019-05-20Chasm Consulting VentSim Premium Design 5.1.4.3
  55. 2019-05-20Coolutils Total Mail Converter 6.2.0.59 Multilingual
  56. 2019-05-20PGWare GameGain 4.5.20.2019 Multilingual
  57. 2019-05-20KMS/2038 & Digital & Online Activation Suite 7.3
  58. 2019-05-20Game of Thrones S08E06 1080p WEBRip 6CH h265 HEVC-PSA
  59. 2019-05-20Survival Of The Dead (2009) BluRay 720p (YIFY)
  60. 2019-05-20XYplorer 20.00.0000 Multilingual
  61. 2019-05-20Safari 2013 720p BluRay H264 AAC-RARBG
  62. 2019-05-20SyncMate Expert 7.4.452 macOS
  63. 2019-05-20MarginNote 3.3.1103 macOS
  64. 2019-05-20Affinity Photo Beta 1.7.0.125 macOS
  65. 2019-05-20Devolutions Remote Desktop Manager Enterprise Edition v2019 1.3.0 macOS
  66. 2019-05-20Typing Instructor Platinum 21.3 macOS
  67. 2019-05-20Bricsys BricsCAD Platinum 19.2.05.2 macOS
  68. 2019-05-20The Secret Village 2013 720p BluRay H264 AAC-RARBG
  69. 2019-05-20The Professor 2019 HDRip XviD AC3-Du
  70. 2019-05-20Ralph Breaks The Internet 2018 3D BluRay 1080p AVC DTS-HD MA7 1-ARiN
  71. 2019-05-20Isotropix Clarisse iFX v4.0 SP2b macOS
  72. 2019-05-20Templates for Keynote - DesiGN 6.0.6 macOS
  73. 2019-05-20Invicta 2009 720p BluRay H264 AAC-RARBG
  74. 2019-05-20Crawlspace 2012 1080p BluRay H264 AAC-RARBG
  75. 2019-05-20Game of Thrones S08E06 Final 2019 1080p AMZN HDrip HEVC DDP 5.1-DDR
  76. 2019-05-20Dark Was the Night 2018 BDRip x264-ARiES
  77. 2019-05-20Lancaster Skies 2019 1080p BluRay x264-EiDER
  78. 2019-05-20Escape Room 2019 RERiP 1080p BluRay x264-DRONES
  79. 2019-05-20How to Train Your Dragon The Hidden World 2019 720p BluRay x264 DTS-FGT
  80. 2019-05-20Serenity 2019 BluRay 1080p DTS x264-O2STK - Removed
  81. 2019-05-20Stan and Ollie 2019 BluRay 1080p DTS x264-CMRG - Removed
  82. 2019-05-20Holmes and Watson 2018 1080p BluRay DTS x264
  83. 2019-05-20Kursk 2018 MULTi 1080p BluRay x264-UTT
  84. 2019-05-20Mary Queen of Scots 2018 1080p UHD BluRay DD7 1 HDR x265-DON
  85. 2019-05-20Essex Boys Retribution 2013 1080p BluRay x264-SONiDO
  86. 2019-05-20Prospect 2018 1080p BluRay DTS x264-GALVANiZE
  87. 2019-05-20Glass 2019 720p BluRay AC3 x264-SPARKS
  88. 2019-05-20Second Act 2018 BluRay 1080p x264-DRONES
  89. 2019-05-20Affiliate HD - Jason Fladlien
  90. 2019-05-20Slaughterhouse Rulez 2018 1080p BluRay x264-AMIABLE
  91. 2019-05-20Suspiria 2018 720p BluRay x264-AMIABLE
  92. 2019-05-20Ninjas vs Monsters 2013 720p BluRay H264 AAC-RARBG
  93. 2019-05-20Nazi Overlord 2018 BluRay 1080p DTS-HD MA 5 1 x264-HDH
  94. 2019-05-20Night School 2018 EXTENDED 1080p BluRay DD7 1 x264-DON
  95. 2019-05-20Castles In The Sky 2014 720p BluRay H264 AAC-RARBG
  96. 2019-05-20Replicas 2018 1080p BluRay DTS x264-GALVANiZE - Removed
  97. 2019-05-20Isnt It Romantic 2019 720p BluRay DD5 1 x264-iFT
  98. 2019-05-20Shoplifters 2018 BluRay 1080p x264 DTS-HD MA-HDChina
  99. 2019-05-20Ninjas vs Monsters 2013 1080p BluRay H264 AAC-RARBG

More eBooks ...

42101 pages, 4210035 eBooks in total, list all pages->

Search free ebooks in ebookee.com!
Back to Top